Portada
METAR-TAF:

METAR-TAF

Aeroports :

La Argelia

Loja, Equador

latitud: 03-59-45S, longitud: 079-22-19W, altitud: 1236 m

Observació

L'informe es va fer fa 26 minuts, a les 22:00 UTC
Vent 10 kt del Est/Nord-Est, variant entre Nord-Est i Sud-Est
Temperatura 27°C
Humitat 39%
Pressió 1016 hPa
Visibilitat 10 km o més
Núvols disperses a una alçada de 4000 ft

METAR: SECA 152200Z 07010KT 040V130 9999 SCT040 27/12 Q1016

Hora: 17:26 (22:26 UTC)


TAF: manca

Observacions i pronòstics meteorològics de més de 4000 aeroports (METAR i TAF).

Les estacions disponibles són els punts grocs i vermells al mapa.

Posi el ratolí al punt desitjat per veure el nom de l'estació.

Feu clic per veure les observacions i els pronòstics meteorològics.

Per canviar el mapa: feu clic els botons verds amb una creu de color negre per apropar; al botó verd amb un guió per allunyar la imatge; o en les fletxes verdes per a mapes adjacents.


METAR-TAF: